Location: Newark
(7.0858°N, 171.3717°E)
Time: 04:27:49
(UTC+00:00)

Vanguard 2 - Pass Details

Date: 01 December 2020
Orbit: 553 x 2937 km, 32.9° (Epoch: 26 January)

Event Time Altitude Azimuth Distance (km) Brightness Sun altitude
Rises 16:18:39 0° 221° (SW) 6,775 12.2 -31.6°
Reaches altitude 10° 16:23:47 10° 215° (SW) 5,659 11.8 -30.4°
Maximum altitude 16:39:07 44° 149° (SSE) 2,949 10.7 -26.9°
Drops below altitude 10° 16:49:36 10° 81° (E) 3,964 11.9 -24.5°
Sets 16:52:27 0° 75° (ENE) 4,657 12.4 -23.8°
